User: anonymous   Login
Location: Unspecified
(0.0000°N, 0.0000°E)
Time: 06:42:58
(UTC+00:00)
Language:

Kosmos-2195 - Orbit

View from above orbital plane
View from above orbital plane
View from above satellite
View from above satellite

Ground track
Ground track

The orbit data is extracted from the following two-line orbital elements,

1 22006U 92036A   19082.87648333  .00000032  00000-0  16983-4 0  9998
2 22006  82.9355 217.8963 0038352  84.9813  30.9417 13.74935597341010
Epoch (UTC): 23 March 2019 21:02:08
Eccentricity: 0.0038352
inclination: 82.9355°
perigee height: 953 km
apogee height: 1010 km
right ascension of ascending node: 217.8963°
argument of perigee: 84.9813°
revolutions per day: 13.74935597
mean anomaly at epoch: 30.9417°
orbit number at epoch: 34101

The dashed part of the orbit path shows where the satellite is in the earth's shadow,  

DLR